Kezdőlap
METAR-TAF:

METAR-TAF

Repülőterek :

Beatrice Municipal Airport

Beatrice, Nebraska, Amerikai Egyesült Államok

földrajzi szélesség: 40-18N, földrajzi hosszúság: 096-45W, magasság: 403 m

Jelenlegi meteorológiai megfigyelések

A jelentés 33 perccel ezelõtt készült, 21:35 UTC
Északkeleti szél 7 kt
Hőmérséklet 4°C
Páratartalom 65%
Légköri nyomás 1016 hPa
Látótávolság: 16.1 km
Borult 5000 lábon

METAR: KBIE 182135Z AUTO 05007KT 10SM OVC050 04/M02 A2999 RMK AO2 T00401016

Idő: 16:08 (22:08 UTC)


TAF: hiányzik

Meteorológiai megfigyelések és előrejelzések több, mint 4000 repülőtéren (METAR és TAF jelentéseket).

A térképen piros és sárga pontok jelzik az elérhető meteorológiai állomásokat.

Mozgassa az egeret a pont fölött, hogy megjelenjen az állomás neve.

Azután kattintson az időjárási megfigyelések és előrejelzések megtekintéséhez.

A térkép megváltoztatása: kattintson a fekete keresztel jelölt zöld gombra ráközelítéshez, a vonallal jelölt zöld gombra távolításhoz, vagy a zöld nyilakra a szomszédos térképek eléréséhez.


METAR-TAF: